Guymon, OK

6:55 PM CDT on April 23, 2017 (GMT -0500)
Guymon Municipal

Weather History for KGUY - February, 2012

Change the Weather History Date:

Monday, February 13, 2012

  Actual Average Record
Temperature  
Mean Temperature 40 °F 38 °F  
Max Temperature 56 °F 53 °F 76 °F (2011)
Min Temperature 23 °F 23 °F 10 °F (2004)
Degree Days  
Heating Degree Days 25 27  
Month to date heating degree days 405 359  
Since 1 July heating degree days 2939 3087  
Cooling Degree Days 0 0  
Month to date cooling degree days 0 0  
Year to date cooling degree days 0 0  
Moisture  
Dew Point 24 °F    
Average Humidity 58    
Maximum Humidity 84    
Minimum Humidity 32    
Precipitation  
Precipitation 0.00 in 0.01 in 0.01 in (2001)
Month to date precipitation 0.20 0.20  
Year to date precipitation 0.22 0.60  
Snow  
Snow 0.00 in - - ()
Month to date snowfall T  
Since 1 July snowfall 9.1  
Snow Depth 0.00 in    
Sea Level Pressure  
Sea Level Pressure 29.74 in    
Wind  
Wind Speed 10 mph (West)    
Max Wind Speed 29 mph    
Max Gust Speed 38 mph    
Visibility 10 miles    
Events      
T = Trace of Precipitation, MM = Missing Value Source: NWS Daily Summary

Daily Weather History Graph

Daily Weather History Graph

Search for Another Location

Airport or City:

Trip Planner

Search our weather history database for the weather conditions in past years. The results will help you decide how hot, cold, wet, or windy it might be!

Date:

Astronomy

Feb. 13, 2012 Rise Set
Actual Time 7:36 AM CST 6:24 PM CST
Civil Twilight 7:10 AM CST 6:50 PM CST
Nautical Twilight 6:39 AM CST 7:21 PM CST
Astronomical Twilight 6:09 AM CST 7:51 PM CST
Moon 12:11 AM CST (2/13) 10:49 AM CST (2/13)
Length of Visible Light 11h 40m
Length of Day
10h 47m
Waning Gibbous, 61% of the Moon is Illuminated
Feb 13
Waning Gibbous
Feb 14
Last Quarter
Feb 21
New
Feb 29
First Quarter
Mar 8
Full

Hourly Weather History & Observations

Time (CST) Temp. Windchill Dew Point Humidity Pressure Visibility Wind Dir Wind Speed Gust Speed Precip Events Conditions
12:53 AM 27.0 °F 12.8 °F 21.9 °F 81% 29.77 in 10.0 mi South 21.9 mph 35.7 mph N/A   Overcast
1:21 AM 26.6 °F 13.8 °F 21.2 °F 80% 29.73 in 10.0 mi South 17.3 mph 28.8 mph N/A   Overcast
1:53 AM 28.0 °F 14.9 °F 21.9 °F 78% 29.76 in 10.0 mi South 19.6 mph 28.8 mph N/A   Overcast
2:36 AM 26.6 °F 13.1 °F 21.2 °F 80% 29.70 in 10.0 mi South 19.6 mph 28.8 mph N/A   Scattered Clouds
2:53 AM 27.0 °F 13.9 °F 21.9 °F 81% 29.74 in 10.0 mi SSW 18.4 mph 25.3 mph N/A   Partly Cloudy
3:53 AM 27.0 °F 15.2 °F 23.0 °F 85% 29.71 in 10.0 mi SSW 15.0 mph - N/A   Clear
4:53 AM 27.0 °F 14.7 °F 23.0 °F 85% 29.68 in 10.0 mi SSW 16.1 mph - N/A   Clear
5:53 AM 27.0 °F 18.0 °F 21.9 °F 81% 29.70 in 10.0 mi SW 9.2 mph - N/A   Clear
6:53 AM 24.1 °F 15.2 °F 19.9 °F 84% 29.72 in 10.0 mi SSW 8.1 mph - N/A   Clear
7:53 AM 25.0 °F 17.1 °F 19.9 °F 81% 29.73 in 10.0 mi WNW 6.9 mph - N/A   Clear
8:53 AM 30.0 °F 24.1 °F 21.9 °F 72% 29.75 in 10.0 mi NW 5.8 mph - N/A   Clear
9:53 AM 34.0 °F 26.0 °F 23.0 °F 64% 29.75 in 10.0 mi WNW 10.4 mph - N/A   Clear
10:53 AM 41.0 °F 35.2 °F 26.1 °F 55% 29.73 in 10.0 mi North 9.2 mph - N/A   Clear
11:53 AM 46.9 °F - 28.0 °F 48% 29.72 in 10.0 mi NNW 12.7 mph - N/A   Clear
12:53 PM 51.1 °F - 28.9 °F 43% 29.69 in 10.0 mi NNW 9.2 mph 20.7 mph N/A   Clear
1:53 PM 55.0 °F - 28.9 °F 37% 29.66 in 10.0 mi NNW 13.8 mph 19.6 mph N/A   Clear
2:53 PM 55.9 °F - 30.0 °F 37% 29.66 in 10.0 mi NNW 10.4 mph 19.6 mph N/A   Clear
3:53 PM 55.9 °F - 27.0 °F 33% 29.67 in 10.0 mi NNW 13.8 mph - N/A   Clear
4:53 PM 55.0 °F - 28.0 °F 35% 29.69 in 10.0 mi NW 13.8 mph - N/A   Clear
5:53 PM 52.0 °F - 28.0 °F 40% 29.72 in 10.0 mi NNW 6.9 mph - N/A   Clear
6:53 PM 46.9 °F - 28.0 °F 48% 29.76 in 10.0 mi NNW 5.8 mph - N/A   Clear
7:53 PM 39.9 °F 37.8 °F 26.1 °F 58% 29.80 in 10.0 mi North 3.5 mph - N/A   Clear
8:53 PM 37.9 °F 35.5 °F 25.0 °F 60% 29.80 in 10.0 mi NNE 3.5 mph - N/A   Mostly Cloudy
9:53 PM 35.1 °F 32.2 °F 24.1 °F 64% 29.82 in 10.0 mi SSW 3.5 mph - N/A   Mostly Cloudy
10:53 PM 33.1 °F - 24.1 °F 70% 29.83 in 10.0 mi Calm Calm - N/A   Clear
11:53 PM 30.9 °F 26.2 °F 23.0 °F 72% 29.84 in 10.0 mi SW 4.6 mph - N/A   Clear